Tracking 19832 objects as of 25-Aug-2019
HD Live streaming from Space Station
objects crossing your sky now

COSMOS 2251 DEB

Track COSMOS 2251 DEB now!
10-day predictions


NORAD ID: 33761
Int'l Code: 1993-036J
Perigee: 760.3 km
Apogee: 794.5 km
Inclination: 74.0 °
Period: 100.2 minutes
Semi major axis: 7148 km
RCS: 0.049 m2 (small)
Launch date: June 16, 1993
Source: Commonwealth of Independent States (former USSR) (CIS)
Launch site: PLESETSK MISSILE AND SPACE COMPLEX (PKMTR)

Note: This is SATELLITE DEBRIS
aabbcc
Your satellite tracking list
Your tracking list is empty




NASA's NSSDC Master Catalog

Two Line Element Set (TLE):
1 33761U 93036J   19236.95106306 +.00000136 +00000-0 +54963-4 0  9993
2 33761 074.0393 172.4842 0023899 100.3213 327.5256 14.36442327551431
Source of the keplerian elements: AFSPC